Regional Weather Roundup
Issued by NWS Mobile, AL

Home | Current Version | Previous Version | Text Only | Print | Product List | Glossary On
Versions: 1 2 3 4 5 6 7 8 9 10 11 12 13 14 15 16 17 18 19 20 21 22 23 24 25 26 27 28 29 30 31 32 33 34 35 36 37 38 39 40 41 42 43 44 45 46 47 48 49 50
000
ASUS44 KMOB 280710
RWRMOB
REGIONAL WEATHER ROUNDUP
NATIONAL WEATHER SERVICE MOBILE AL
100 AM CST SAT FEB 28 2015

NOTE: "FAIR" INDICATES FEW OR NO CLOUDS BELOW 12,000 FEET WITH NO
      SIGNIFICANT WEATHER AND/OR OBSTRUCTIONS TO VISIBILITY.

  * THESE STATIONS ARE PART OF THE UNIVERSITY OF SOUTH ALABAMA
    MESONET AND ARE NOT UNDER NWS OR FAA QUALITY CONTROL.

ALZ061>064-280800-
COASTAL ALABAMA

CITY           SKY/WX    TMP DP  RH WIND       PRES   REMARKS
MOBILE REG APT CLEAR     38  27  64 NE9       30.39S
BROOKLEY FIELD PTCLDY    43  30  60 NE12      30.40F
USA CAMPUS*      N/A     41  28  60 CALM      30.39S
DOG RIVER*     NOT AVBL


CITY           SKY/WX    TMP DP  RH WIND       PRES   REMARKS
MOUNT VERNON*    N/A     36  27  69 CALM      30.41S
SARALAND*      NOT AVBL
BAY MINETTE*   NOT AVBL
LOXLEY*          N/A     39  28  65 NE8       30.39S
ROBERTSDALE*     N/A     39  28  65 CALM      30.38F
FAIRHOPE*        N/A     39  28  65 NE10      30.37S
ELBERTA*         N/A     41  28  60 N7        30.37S
FOLEY*         NOT AVBL
GRAND BAY*       N/A     39  28  65 NE6       30.37S
DAUPHIN ISLND* NOT AVBL
BON SCOUR NWR* NOT AVBL
GULF SHORES    MOCLDY    41  29  61 NE7       30.37F

$$

ALZ051>060-280800-
INTERIOR SOUTHWEST AND SOUTH CENTRAL ALABAMA

CITY           SKY/WX    TMP DP  RH WIND       PRES   REMARKS
GREENVILLE     CLEAR     36  24  62 NE5       30.40F
EVERGREEN      CLEAR     37  25  61 N7        30.40F
CASTLEBERRY*   NOT AVBL
ATMORE*          N/A     37  27  65 NE6       30.41S
DIXIE*           N/A     36  32  87 CALM      30.36F
ANDALUSIA/OPP  MOCLDY    42  26  53 E9        30.39F
ANDALUSIA*       N/A     37  28  70 NE10      30.37F
FLORALA APT    MOCLDY    41  28  60 NE9       30.41S
FLORALA*         N/A     41  28  60 N3        30.36S

$$

FLZ001>006-280800-
WESTERN FLORIDA PANHANDLE

CITY           SKY/WX    TMP DP  RH WIND       PRES   REMARKS
PENSACOLA      MOCLDY    43  29  57 N12       30.38S
NAS PENSACOLA  MOCLDY    43  29  57 NE13      30.37S
MILTON         MOCLDY    41  28  60 NE7       30.39R
WHTNG S FIELD  MOCLDY    44  28  53 NE8       30.39S


CITY           SKY/WX    TMP DP  RH WIND       PRES   REMARKS
WALNUT HILL*   NOT AVBL
JAY*             N/A     39  27  60 NE5       30.39F
DUKE FIELD     CLOUDY    41  29  62 N8        30.38R
CRESTVIEW      MOCLDY    41  29  62 NE7       30.41R
VALPARAISO     MOCLDY    43  29  58 NE12      30.37R
DESTIN         CLOUDY    45  33  63 N8        30.38R

$$

MSZ076-079-280800-
INTERIOR SOUTHEAST MISSISSIPPI

CITY           SKY/WX    TMP DP  RH WIND       PRES   REMARKS
LEAKESVILLE*     N/A     37  25  60 NE5       30.41R
AGRICOLA*      NOT AVBL

$$

MARINE OBSERVATIONS

STATION/POSITION TIME  TEMP    WIND        PRES    WAVE
                       AIR SEA DIR/SP/G            HT/PER
                 (UTC) (F)     (DEG/KT/KT) (MB)    (FT/S)
PASCAGOULA       0700   44      20/  9/ 12 1028.3F
PETIT BOIS ISLND 0700   47      40/ 19/ 23 1028.3F
GRAND BAY        0600   44      40/  8     1029.0S
KATRINA CUT      0600   47      50/ 20     1028.8
CEDAR POINT      0600   45      50/ 17     1028.1
E DAUPHIN ISLAND 0600   47      40/ 19/ 21 1028.3F
MIDDLE BAY LIGHT 0600   45      40/ 19     1027.4
USCG MOBILE BAY  0623   43 51   40/ 12/ 15 1028.3
STATE DOCKS      0623   43 47              1029.1
MEAHER PARK      0600   42      30/  5     1029.5
WEEKS BAY        0600   44                   N/A
FORT MORGAN      0700   46      60/ 21/ 26 1027.4F
12 S ORANGE BCH  0700   51 62   40/ 21/ 25 1027.1F   4/ 5
PENSACOLA BAY    0623   47 55   20/  8/ 12 1028.8
64 S DAUPHIN ISL 0617   56 69   50/ 21/ 29 1026.9F   6/ 6
67 S FORT MORGAN 0500   59      60/ 19     1026.4

$$

SELECTED LOCATIONS ACROSS THE REGION

CITY           SKY/WX    TMP DP  RH WIND       PRES   REMARKS
NEW ORLEANS    MOCLDY    45  31  58 NE10      30.39F
GULFPORT       CLEAR     41  27  57 NE10      30.38F
PASCAGOULA AP  CLEAR     39  28  64 N8        30.38F
PASCAGOULA*    NOT AVBL
HATTIESBURG    CLEAR     36  25  64 N5        30.43S
LAUREL         CLEAR     36  21  55 N7        30.43S
MERIDIAN       CLEAR     34  20  56 NE9       30.45F WCI  27
JACKSON        CLOUDY    38  20  48 E10       30.43F
MONTGOMERY     CLEAR     35  24  64 N7        30.43F WCI  29
TROY           CLEAR     35  25  66 NE5       30.42F WCI  31
KINSTON*       NOT AVBL
GENEVA*          N/A     41  30  65 NE6       30.42S
ASHFORD*         N/A     37  28  70 NE10      30.37F
DOTHAN         MOCLDY    40  29  64 N10       30.43S
PANAMA CITY    CLOUDY    46  40  79 N3        30.37R

$$



USA.gov is the U.S. government's official web portal to all federal, state and local government web resources and services.